Simultaneous Nadir Overpasses (SNOs) Predictions

Prediction of SNOs between LANDSAT-8 and NOAA-19 Satellite Orbit:

Table of predicted SNOs for the next 14.0 days since TLE Epoch: 6/2/2017
Index Date (LANDSAT-8) Time (LANDSAT-8) Lat,Lon (LANDSAT-8) SZA (LANDSAT-8 ) Date (NOAA-19) Time (NOAA-19) Lat,Lon (NOAA-19) SZA (NOAA-19 ) Distance(km) Time Diff (sec)
1 06/02/2017 15:41:25 -76.15, 133.30 126.00 06/02/2017 15:41:26 -76.17, 133.34 125.98 2.11 1
2 06/04/2017 20:25:33 -76.66, 63.92 125.68 06/04/2017 20:24:27 -76.71, 60.55 125.78 86.53 66
3 06/04/2017 21:15:09 76.17,-130.08 53.76 06/04/2017 21:15:12 76.17,-130.05 53.77 1.00 3
4 06/07/2017 01:59:19 76.58, 160.20 53.99 06/07/2017 01:58:12 76.66, 157.38 53.95 73.26 67
5 06/07/2017 02:48:55 -76.17, -33.52 126.48 06/07/2017 02:49:05 -76.20, -33.55 126.45 3.47 10
6 06/09/2017 07:33:10 -76.34,-104.05 126.49 06/09/2017 07:31:58 -76.41,-105.00 126.47 26.04 72
7 06/09/2017 08:22:39 76.17, 63.06 53.33 06/09/2017 08:22:51 76.17, 63.15 53.34 2.34 12
8 06/11/2017 13:06:56 76.24, -7.79 53.24 06/11/2017 13:05:43 76.32, -8.06 53.30 11.81 73
9 06/11/2017 13:56:25 -76.17, 159.62 126.84 06/11/2017 13:56:43 -76.20, 159.65 126.81 3.35 18
10 06/13/2017 18:40:42 -76.24, 88.77 126.90 06/13/2017 18:39:32 -76.24, 88.85 126.90 2.13 70
11 06/13/2017 19:30:08 76.21,-103.66 53.07 06/13/2017 19:30:30 76.19,-103.69 53.05 3.02 22
12 06/16/2017 00:14:25 76.28,-174.53 53.05 06/16/2017 00:13:20 76.26,-174.59 53.01 2.89 65




NCC Satellite Simultaneous Nadir Overpasses (SNOs) Prediction Service
